NUSANTARA TIGA (SATRIA)

Last updated on Tue Sep 22 2026 00:03:16 GMT+0000 (Coordinated Universal Time)

1 57045U 23086A 26264.56294771 .00000000 00000+0 00000+0 0 9999 2 57045 0.0172 39.2580 0002959 247.8730 61.9705 1.00267311 10725
UTC large
Height (km)
Speed (km/s)
/
Latitude / Longitude
Inclination (degrees)
Orbital Period (minutes)
Azimuth
Elevation
Range (km)
Doppler Factor

Next 0 passes for location: London (51.5072 / 0.1276)

No passes found over London.
NUSANTARA TIGA (SATRIA)